User: anonymous   Login
Location: Sperry Observatory
(40.6664°N, 74.3236°W)
Time: 17:52:23
(UTC-05:00)
Language:

UOSAT-12 - Orbit

View from above orbital plane
View from above orbital plane
View from above satellite
View from above satellite

Ground track
Ground track

The orbit data is extracted from the following two-line orbital elements,

1 25693U 99021A   18053.20781189 -.00000103  00000-0  61000-5 0  9996
2 25693  64.5551  75.0699 0048658 279.4945  80.0662 14.80784398 17181
Epoch (UTC): 22 February 2018 04:59:14
Eccentricity: 0.0048658
inclination: 64.5551°
perigee height: 593 km
apogee height: 661 km
right ascension of ascending node: 75.0699°
argument of perigee: 279.4945°
revolutions per day: 14.80784398
mean anomaly at epoch: 80.0662°
orbit number at epoch: 1718

The dashed part of the orbit path shows where the satellite is in the earth's shadow,  

DLR